JBU353 KBOS-EIDW

Flight info

Callsign JBU353
Flight time N/A
Altitude 33000
Route LBSTA8 LBSTA DCT ALLEX N431B ELSIR/M078F340 NATU NETKI/N0446F350 DCT REVNU DCT OLAPO
Aircraft A21N/M-SDE2E3FGHIRWXY/LB1

Departure

Time N/A
Airport Boston Logan International Airport (KBOS)

Arrival

Time 2026-05-04 07:58
Airport Dublin Airport (EIDW)
Time Latitude Longitude Altitude Speed Heading
2026-05-04 04:54 52.46337 -38.08741 33401 ft 474 kts 69°
2026-05-04 04:54 52.48677 -37.98629 33403 ft 474 kts 69°
2026-05-04 04:55 52.51009 -37.88501 33403 ft 475 kts 69°
2026-05-04 04:55 52.53336 -37.78345 33411 ft 475 kts 69°
2026-05-04 04:56 52.55644 -37.68173 33409 ft 475 kts 69°
2026-05-04 04:56 52.57959 -37.57992 33409 ft 476 kts 70°
2026-05-04 04:57 52.60262 -37.47797 33413 ft 476 kts 70°
2026-05-04 04:57 52.62557 -37.37584 33412 ft 476 kts 70°
2026-05-04 04:58 52.64827 -37.27428 33412 ft 476 kts 70°
2026-05-04 04:58 52.67106 -37.17181 33415 ft 476 kts 70°
2026-05-04 04:59 52.69377 -37.06925 33420 ft 476 kts 70°
2026-05-04 04:59 52.71637 -36.96651 33418 ft 477 kts 70°
2026-05-04 05:00 52.73886 -36.86378 33422 ft 476 kts 70°
2026-05-04 05:01 52.76955 -36.72308 33418 ft 477 kts 70°
2026-05-04 05:01 52.79192 -36.62001 33427 ft 477 kts 70°
2026-05-04 05:02 52.81417 -36.51673 33433 ft 477 kts 71°
2026-05-04 05:02 52.83620 -36.41326 33426 ft 477 kts 71°
2026-05-04 05:03 52.85833 -36.30977 33428 ft 477 kts 71°
2026-05-04 05:04 52.90224 -36.10261 33435 ft 477 kts 71°
2026-05-04 05:04 52.92395 -35.99868 33436 ft 477 kts 71°
2026-05-04 05:06 53.01029 -35.58274 33429 ft 478 kts 71°
2026-05-04 05:07 53.03181 -35.47764 33436 ft 478 kts 71°
2026-05-04 05:07 53.05297 -35.37377 33430 ft 478 kts 71°
2026-05-04 05:09 53.14759 -34.90191 33435 ft 478 kts 72°
2026-05-04 05:10 53.16502 -34.81365 33441 ft 478 kts 72°
2026-05-04 05:10 53.18909 -34.69128 33443 ft 478 kts 72°
2026-05-04 05:11 53.20974 -34.58579 33442 ft 478 kts 72°
2026-05-04 05:11 53.22678 -34.49799 33441 ft 478 kts 72°
2026-05-04 05:12 53.24717 -34.39153 33442 ft 479 kts 72°
2026-05-04 05:12 53.26747 -34.28641 33442 ft 479 kts 72°
2026-05-04 05:13 53.28776 -34.18039 33441 ft 479 kts 72°
2026-05-04 05:13 53.30805 -34.07435 33440 ft 479 kts 72°
2026-05-04 05:14 53.32821 -33.96830 33443 ft 479 kts 72°
2026-05-04 05:14 53.34823 -33.86197 33445 ft 479 kts 72°
2026-05-04 05:15 53.36813 -33.75550 33443 ft 479 kts 73°
2026-05-04 05:15 53.38796 -33.64887 33445 ft 479 kts 73°
2026-05-04 05:16 53.40770 -33.54214 33446 ft 480 kts 73°
2026-05-04 05:16 53.42735 -33.43536 33442 ft 480 kts 73°
2026-05-04 05:17 53.44696 -33.32828 33440 ft 480 kts 73°
2026-05-04 05:17 53.46645 -33.22111 33444 ft 480 kts 73°
2026-05-04 05:18 53.48584 -33.11377 33443 ft 480 kts 73°
2026-05-04 05:18 53.50515 -33.00632 33442 ft 481 kts 73°
2026-05-04 05:19 53.52437 -32.89888 33443 ft 481 kts 73°
2026-05-04 05:19 53.54351 -32.79117 33438 ft 481 kts 73°
2026-05-04 05:20 53.56252 -32.68333 33441 ft 481 kts 73°
2026-05-04 05:20 53.58146 -32.57544 33439 ft 481 kts 73°
2026-05-04 05:21 53.60017 -32.46811 33440 ft 481 kts 73°
2026-05-04 05:21 53.61890 -32.35998 33439 ft 481 kts 73°
2026-05-04 05:22 53.63755 -32.25188 33442 ft 481 kts 73°
2026-05-04 05:22 53.65609 -32.14353 33435 ft 481 kts 73°
2026-05-04 05:23 53.67455 -32.03509 33437 ft 481 kts 73°
2026-05-04 05:23 53.69292 -31.92651 33439 ft 481 kts 73°
2026-05-04 05:24 53.71121 -31.81783 33435 ft 481 kts 73°
2026-05-04 05:24 53.72938 -31.70900 33433 ft 482 kts 73°
2026-05-04 05:25 53.74743 -31.60019 33434 ft 482 kts 73°
2026-05-04 05:25 53.76544 -31.49107 33431 ft 482 kts 73°
2026-05-04 05:26 53.78334 -31.38183 33434 ft 482 kts 73°
2026-05-04 05:26 53.80115 -31.27244 33432 ft 482 kts 73°
2026-05-04 05:28 53.87148 -30.83377 33434 ft 483 kts 74°
2026-05-04 05:29 53.88869 -30.72454 33432 ft 483 kts 74°
2026-05-04 05:29 53.90590 -30.61446 33432 ft 483 kts 74°
2026-05-04 05:31 53.97385 -30.17332 33430 ft 483 kts 74°
2026-05-04 05:32 53.99056 -30.06290 33420 ft 483 kts 74°
2026-05-04 05:33 54.01492 -29.89672 33423 ft 483 kts 75°
2026-05-04 05:33 54.03073 -29.78571 33421 ft 483 kts 74°
2026-05-04 05:34 54.04650 -29.67472 33424 ft 482 kts 74°
2026-05-04 05:34 54.06214 -29.56370 33421 ft 482 kts 74°
2026-05-04 05:35 54.07775 -29.45275 33422 ft 483 kts 74°
2026-05-04 05:35 54.09309 -29.34159 33422 ft 482 kts 75°
2026-05-04 05:36 54.10841 -29.23047 33417 ft 481 kts 74°
2026-05-04 05:36 54.12366 -29.11936 33413 ft 481 kts 75°
2026-05-04 05:37 54.13877 -29.00836 33415 ft 481 kts 75°
2026-05-04 05:37 54.15374 -28.89728 33414 ft 480 kts 75°
2026-05-04 05:38 54.17604 -28.73069 33413 ft 480 kts 75°
2026-05-04 05:38 54.19073 -28.61967 33407 ft 479 kts 75°
2026-05-04 05:39 54.21243 -28.45402 33405 ft 478 kts 75°
2026-05-04 05:40 54.23395 -28.28796 33406 ft 477 kts 76°
2026-05-04 05:40 54.24815 -28.17717 33409 ft 477 kts 76°
2026-05-04 05:41 54.26220 -28.06651 33401 ft 476 kts 76°
2026-05-04 05:41 54.27624 -27.95598 33399 ft 475 kts 76°
2026-05-04 05:42 54.29016 -27.84556 33401 ft 474 kts 76°
2026-05-04 05:42 54.30391 -27.73532 33401 ft 473 kts 77°
2026-05-04 05:43 54.31747 -27.62507 33401 ft 473 kts 77°
2026-05-04 05:45 54.37069 -27.18481 33378 ft 470 kts 78°
2026-05-04 05:47 54.42199 -26.74595 33384 ft 467 kts 78°
2026-05-04 05:47 54.43449 -26.63642 33381 ft 467 kts 79°
2026-05-04 05:48 54.44690 -26.52698 33377 ft 467 kts 79°
2026-05-04 05:48 54.45929 -26.41739 33375 ft 467 kts 79°
2026-05-04 05:49 54.47147 -26.30780 33363 ft 467 kts 79°
2026-05-04 05:49 54.48357 -26.19812 33361 ft 467 kts 79°
2026-05-04 05:51 54.53112 -25.75983 33361 ft 467 kts 79°
2026-05-04 05:52 54.54277 -25.64989 33354 ft 467 kts 79°
2026-05-04 05:52 54.55428 -25.53991 33350 ft 467 kts 79°
2026-05-04 05:54 54.59934 -25.09959 33346 ft 466 kts 79°
2026-05-04 05:55 54.61040 -24.98938 33334 ft 466 kts 79°
2026-05-04 05:55 54.62121 -24.87902 33328 ft 466 kts 80°
2026-05-04 05:56 54.63196 -24.76877 33332 ft 467 kts 79°
2026-05-04 05:56 54.64278 -24.65832 33325 ft 467 kts 79°
2026-05-04 05:57 54.65337 -24.54780 33336 ft 466 kts 79°
2026-05-04 05:57 54.66381 -24.43723 33334 ft 466 kts 80°
2026-05-04 05:58 54.67435 -24.32670 33335 ft 466 kts 79°
2026-05-04 05:58 54.68474 -24.21623 33317 ft 466 kts 80°
2026-05-04 05:59 54.69324 -24.12416 33335 ft 466 kts 80°
2026-05-04 05:59 54.70338 -24.01336 33316 ft 467 kts 80°
2026-05-04 06:00 54.71341 -23.90263 33310 ft 466 kts 80°
2026-05-04 06:00 54.72335 -23.79172 33314 ft 467 kts 80°
2026-05-04 06:01 54.73318 -23.68071 33315 ft 467 kts 80°
2026-05-04 06:03 54.77154 -23.23604 33303 ft 467 kts 81°
2026-05-04 06:05 54.81280 -22.73387 33297 ft 468 kts 82°
2026-05-04 06:06 54.82169 -22.62203 33292 ft 468 kts 82°
2026-05-04 06:06 54.83047 -22.51013 33286 ft 468 kts 82°
2026-05-04 06:07 54.83918 -22.39818 33285 ft 468 kts 82°
2026-05-04 06:07 54.84771 -22.28710 33282 ft 468 kts 83°
2026-05-04 06:08 54.85618 -22.17512 33284 ft 468 kts 83°
2026-05-04 06:08 54.86452 -22.06308 33278 ft 468 kts 83°
2026-05-04 06:09 54.87282 -21.95109 33272 ft 468 kts 83°
2026-05-04 06:11 54.90484 -21.50298 33267 ft 467 kts 83°
2026-05-04 06:13 54.93521 -21.05455 33262 ft 466 kts 84°
2026-05-04 06:14 54.96007 -20.66267 33248 ft 467 kts 84°
2026-05-04 06:15 54.96712 -20.55062 33248 ft 466 kts 84°
2026-05-04 06:15 54.97402 -20.43833 33246 ft 466 kts 84°
2026-05-04 06:16 54.98072 -20.32603 33241 ft 466 kts 84°
2026-05-04 06:16 54.98719 -20.21367 33239 ft 466 kts 84°
2026-05-04 06:17 54.99373 -20.10134 33239 ft 466 kts 84°
2026-05-04 06:17 54.99975 -19.98906 33238 ft 466 kts 88°
2026-05-04 06:18 55.00209 -19.87624 33237 ft 466 kts 89°
2026-05-04 06:20 55.00983 -19.42633 33226 ft 465 kts 89°
2026-05-04 06:21 55.01414 -19.14516 33217 ft 464 kts 90°
2026-05-04 06:22 55.01572 -19.03263 33223 ft 464 kts 90°
2026-05-04 06:25 55.02299 -18.24897 33204 ft 464 kts 90°
2026-05-04 06:26 55.02370 -18.13658 33208 ft 463 kts 90°
2026-05-04 06:26 55.02417 -18.02437 33204 ft 463 kts 90°
2026-05-04 06:27 55.02508 -17.74449 33202 ft 463 kts 90°
2026-05-04 06:28 55.02523 -17.63234 33203 ft 462 kts 90°
2026-05-04 06:28 55.02538 -17.52037 33199 ft 462 kts 90°
2026-05-04 06:29 55.02536 -17.40835 33199 ft 462 kts 90°
2026-05-04 06:29 55.02518 -17.29641 33198 ft 462 kts 90°
2026-05-04 06:30 55.02497 -17.18451 33196 ft 462 kts 90°
2026-05-04 06:30 55.02463 -17.07264 33195 ft 461 kts 90°
2026-05-04 06:31 55.02413 -16.96084 33191 ft 461 kts 90°
2026-05-04 06:31 55.02362 -16.84917 33192 ft 461 kts 90°
2026-05-04 06:33 55.02043 -16.40320 33188 ft 461 kts 90°
2026-05-04 06:34 55.01939 -16.29100 33181 ft 460 kts 90°
2026-05-04 06:34 55.01817 -16.18018 33183 ft 460 kts 90°
2026-05-04 06:36 55.01255 -15.73494 33180 ft 459 kts 90°
2026-05-04 06:37 55.01086 -15.62396 33170 ft 458 kts 90°
2026-05-04 06:37 55.00904 -15.51314 33173 ft 457 kts 90°
2026-05-04 06:38 55.00724 -15.40250 33168 ft 456 kts 90°
2026-05-04 06:40 54.99977 -14.96156 33168 ft 453 kts 88°
2026-05-04 06:40 55.00020 -14.85173 33164 ft 453 kts 88°
2026-05-04 06:41 55.00053 -14.74218 33162 ft 453 kts 88°
2026-05-04 06:41 55.00069 -14.63254 33161 ft 452 kts 88°
2026-05-04 06:42 55.00078 -14.52299 33157 ft 452 kts 88°
2026-05-04 06:44 54.99983 -14.08718 33161 ft 450 kts 88°
2026-05-04 06:44 54.99686 -13.97845 33157 ft 451 kts 98°
2026-05-04 06:45 54.98423 -13.87129 33155 ft 452 kts 100°
2026-05-04 06:45 54.97117 -13.76451 33156 ft 451 kts 100°
2026-05-04 06:46 54.95806 -13.65768 33155 ft 451 kts 100°
2026-05-04 06:46 54.94480 -13.55102 33155 ft 451 kts 100°
2026-05-04 06:48 54.89377 -13.14357 33151 ft 449 kts 100°
2026-05-04 06:50 54.83926 -12.72078 33148 ft 448 kts 100°
2026-05-04 06:51 54.82537 -12.61546 33150 ft 448 kts 100°
2026-05-04 06:51 54.81146 -12.51028 33152 ft 447 kts 100°
2026-05-04 06:52 54.79747 -12.40539 33147 ft 447 kts 101°
2026-05-04 06:52 54.78329 -12.30054 33143 ft 447 kts 101°
2026-05-04 06:53 54.76907 -12.19587 33145 ft 446 kts 101°
2026-05-04 06:53 54.75483 -12.09148 33146 ft 445 kts 101°
2026-05-04 06:54 54.74046 -11.98719 33143 ft 445 kts 101°
2026-05-04 06:54 54.72601 -11.88304 33152 ft 445 kts 101°
2026-05-04 06:55 54.71159 -11.77909 33145 ft 444 kts 101°
2026-05-04 06:55 54.69699 -11.67532 33149 ft 444 kts 101°
2026-05-04 06:57 54.63821 -11.26295 33136 ft 442 kts 101°
2026-05-04 06:58 54.62330 -11.16018 33144 ft 441 kts 101°
2026-05-04 06:58 54.60833 -11.05742 33148 ft 441 kts 101°
2026-05-04 06:59 54.59331 -10.95481 33144 ft 441 kts 101°
2026-05-04 06:59 54.57818 -10.85235 33140 ft 441 kts 101°
2026-05-04 07:01 54.51676 -10.44427 33134 ft 439 kts 101°
2026-05-04 07:02 54.50127 -10.34268 33133 ft 439 kts 101°
2026-05-04 07:02 54.48569 -10.24120 33131 ft 438 kts 101°
2026-05-04 07:03 54.47002 -10.13993 33127 ft 438 kts 101°
2026-05-04 07:03 54.44927 -10.04103 33127 ft 441 kts 107°
2026-05-04 07:04 54.42672 -9.94301 33123 ft 441 kts 107°
2026-05-04 07:04 54.40419 -9.84508 33127 ft 441 kts 107°
2026-05-04 07:05 54.38157 -9.74732 33130 ft 441 kts 107°
2026-05-04 07:05 54.35885 -9.64981 33126 ft 441 kts 107°
2026-05-04 07:06 54.32479 -9.50372 33125 ft 440 kts 107°
2026-05-04 07:07 54.30196 -9.40653 33123 ft 440 kts 107°
2026-05-04 07:09 54.21000 -9.01948 33106 ft 439 kts 107°
2026-05-04 07:09 54.18699 -8.92375 33099 ft 438 kts 107°
2026-05-04 07:10 54.16379 -8.82740 33096 ft 439 kts 107°
2026-05-04 07:12 54.07029 -8.44402 33092 ft 436 kts 108°
2026-05-04 07:12 54.04683 -8.34890 33093 ft 436 kts 108°
2026-05-04 07:13 54.02333 -8.25392 33090 ft 435 kts 107°
2026-05-04 07:13 53.99980 -8.15928 33092 ft 435 kts 108°
2026-05-04 07:14 53.94061 -7.92317 33087 ft 434 kts 108°
2026-05-04 07:15 53.91694 -7.82962 33091 ft 434 kts 108°
2026-05-04 07:15 53.89315 -7.73564 33087 ft 434 kts 108°
2026-05-04 07:16 53.86906 -7.64117 33092 ft 434 kts 108°
2026-05-04 07:16 53.84513 -7.54739 33088 ft 433 kts 108°
2026-05-04 07:17 53.82129 -7.45447 33089 ft 433 kts 108°
2026-05-04 07:17 53.79708 -7.36122 33087 ft 433 kts 108°
2026-05-04 07:18 53.77914 -7.26591 33078 ft 418 kts 88°
2026-05-04 07:18 53.78503 -7.17010 33084 ft 409 kts 78°
2026-05-04 07:19 53.79181 -7.07446 33083 ft 410 kts 80°
2026-05-04 07:19 53.79729 -6.97837 33079 ft 411 kts 80°
2026-05-04 07:20 53.80240 -6.88209 33083 ft 411 kts 81°
2026-05-04 07:20 53.80750 -6.78567 33081 ft 411 kts 81°
2026-05-04 07:22 53.75398 -6.47104 33090 ft 442 kts 126°
2026-05-04 07:22 53.73332 -6.43265 33081 ft 442 kts 126°
2026-05-04 07:23 53.69219 -6.35566 33075 ft 441 kts 126°
2026-05-04 07:23 53.65110 -6.27888 33057 ft 441 kts 126°
2026-05-04 07:24 53.61023 -6.20285 33063 ft 440 kts 126°
2026-05-04 07:24 53.56904 -6.12658 33062 ft 440 kts 126°
2026-05-04 07:26 53.40436 -5.82373 33056 ft 438 kts 126°
2026-05-04 07:27 53.36328 -5.74850 33061 ft 438 kts 126°
2026-05-04 07:27 53.32220 -5.67339 33059 ft 437 kts 126°
2026-05-04 07:28 53.28115 -5.59832 33053 ft 437 kts 126°
2026-05-04 07:28 53.24027 -5.52341 33052 ft 437 kts 126°
2026-05-04 07:29 53.19941 -5.44838 33049 ft 436 kts 126°
2026-05-04 07:29 53.15868 -5.37339 33048 ft 436 kts 126°
2026-05-04 07:30 53.11804 -5.29834 33046 ft 437 kts 126°
2026-05-04 07:30 53.07747 -5.22320 33040 ft 436 kts 126°
2026-05-04 07:31 53.03697 -5.14796 33036 ft 437 kts 126°
2026-05-04 07:33 52.87601 -4.84690 33033 ft 437 kts 127°
2026-05-04 07:33 52.83566 -4.77092 32988 ft 435 kts 127°
2026-05-04 07:34 52.81604 -4.73393 32330 ft 433 kts 127°
2026-05-04 07:34 52.79508 -4.69789 31368 ft 441 kts 136°
2026-05-04 07:34 52.76856 -4.67111 30350 ft 457 kts 152°
2026-05-04 07:34 52.73755 -4.65706 29230 ft 470 kts 168°
2026-05-04 07:35 52.70459 -4.65740 28175 ft 479 kts 185°
2026-05-04 07:35 52.67238 -4.67234 27200 ft 484 kts 201°
2026-05-04 07:35 52.64374 -4.70097 26458 ft 481 kts 218°
2026-05-04 07:35 52.62100 -4.74053 25770 ft 475 kts 234°
2026-05-04 07:36 52.60561 -4.78801 25098 ft 467 kts 250°
2026-05-04 07:36 52.59868 -4.83947 24436 ft 458 kts 267°
2026-05-04 07:38 52.70684 -5.09702 20094 ft 412 kts 317°
2026-05-04 07:38 52.72730 -5.13009 20014 ft 411 kts 317°
2026-05-04 07:38 52.74764 -5.16331 20011 ft 411 kts 317°
2026-05-04 07:38 52.76796 -5.19655 20018 ft 411 kts 317°
2026-05-04 07:39 52.78829 -5.22965 20026 ft 411 kts 317°
2026-05-04 07:39 52.80548 -5.26595 20001 ft 394 kts 301°
2026-05-04 07:39 52.81503 -5.30749 20010 ft 389 kts 289°
2026-05-04 07:39 52.82385 -5.35082 19981 ft 403 kts 291°
2026-05-04 07:40 52.83340 -5.39441 19292 ft 404 kts 292°
2026-05-04 07:40 52.84318 -5.43814 18435 ft 406 kts 292°
2026-05-04 07:40 52.85304 -5.48187 17640 ft 405 kts 292°
2026-05-04 07:40 52.86287 -5.52533 16858 ft 402 kts 292°
2026-05-04 07:41 52.87262 -5.56846 16110 ft 399 kts 292°
2026-05-04 07:41 52.88234 -5.61130 15387 ft 396 kts 292°
2026-05-04 07:41 52.89201 -5.65378 14674 ft 393 kts 292°
2026-05-04 07:41 52.90169 -5.69590 14091 ft 387 kts 292°
2026-05-04 07:42 52.91122 -5.73702 13665 ft 377 kts 292°
2026-05-04 07:42 52.92055 -5.77724 13054 ft 372 kts 292°
2026-05-04 07:42 52.92980 -5.81708 12419 ft 368 kts 292°
2026-05-04 07:42 52.93898 -5.85650 11801 ft 364 kts 292°
2026-05-04 07:43 52.94805 -5.89533 11302 ft 358 kts 292°
2026-05-04 07:43 52.95691 -5.93319 10999 ft 346 kts 292°
2026-05-04 07:43 52.96543 -5.96968 10749 ft 333 kts 292°
2026-05-04 07:43 52.97362 -6.00467 10553 ft 319 kts 292°
2026-05-04 07:44 52.98148 -6.03834 10381 ft 306 kts 292°
2026-05-04 07:44 52.98902 -6.07068 10213 ft 294 kts 292°
2026-05-04 07:44 52.99630 -6.10191 9936 ft 287 kts 292°
2026-05-04 07:44 53.00344 -6.13257 9505 ft 284 kts 292°
2026-05-04 07:45 53.01050 -6.16312 9064 ft 282 kts 292°
2026-05-04 07:45 53.01741 -6.19350 8612 ft 281 kts 292°
2026-05-04 07:45 53.02420 -6.22382 8174 ft 279 kts 292°
2026-05-04 07:45 53.03077 -6.25366 7747 ft 278 kts 292°
2026-05-04 07:46 53.03731 -6.28374 7320 ft 277 kts 292°
2026-05-04 07:46 53.04380 -6.31377 7042 ft 276 kts 292°
2026-05-04 07:46 53.05342 -6.34094 6882 ft 272 kts 313°
2026-05-04 07:46 53.06635 -6.36363 6799 ft 270 kts 317°
2026-05-04 07:47 53.07969 -6.38562 6750 ft 269 kts 317°
2026-05-04 07:47 53.09307 -6.40750 6725 ft 270 kts 317°
2026-05-04 07:47 53.10644 -6.42936 6696 ft 269 kts 317°
2026-05-04 07:49 53.19946 -6.58129 6171 ft 265 kts 317°
2026-05-04 07:49 53.21262 -6.60273 6000 ft 265 kts 317°
2026-05-04 07:49 53.22645 -6.62273 5832 ft 262 kts 330°
2026-05-04 07:50 53.24231 -6.63629 5672 ft 251 kts 336°
2026-05-04 07:50 53.25785 -6.64792 5497 ft 239 kts 339°
2026-05-04 07:50 53.27363 -6.65404 5331 ft 228 kts 354°
2026-05-04 07:50 53.28904 -6.65418 5154 ft 216 kts
2026-05-04 07:51 53.30383 -6.65256 4994 ft 213 kts
2026-05-04 07:51 53.31858 -6.65082 4831 ft 212 kts
2026-05-04 07:51 53.33306 -6.64630 4666 ft 212 kts 16°
2026-05-04 07:51 53.34719 -6.63910 4515 ft 212 kts 17°
2026-05-04 07:52 53.36109 -6.63097 4368 ft 211 kts 21°
2026-05-04 07:52 53.37476 -6.62201 4203 ft 208 kts 21°
2026-05-04 07:52 53.38783 -6.61301 4037 ft 197 kts 26°
2026-05-04 07:52 53.39961 -6.60266 3881 ft 186 kts 28°
2026-05-04 07:53 53.41060 -6.59255 3766 ft 177 kts 28°
2026-05-04 07:54 53.44831 -6.48581 2753 ft 161 kts 91°
2026-05-04 07:55 53.44734 -6.46697 2537 ft 156 kts 91°
2026-05-04 07:55 53.44643 -6.45030 2329 ft 135 kts 91°
2026-05-04 07:55 53.44559 -6.43469 2127 ft 134 kts 91°
2026-05-04 07:55 53.44475 -6.41928 1950 ft 133 kts 91°
2026-05-04 07:56 53.44391 -6.40387 1771 ft 133 kts 91°
2026-05-04 07:56 53.44305 -6.38838 1583 ft 133 kts 91°
2026-05-04 07:56 53.44221 -6.37288 1425 ft 132 kts 90°
2026-05-04 07:56 53.44139 -6.35760 1226 ft 132 kts 90°
2026-05-04 07:57 53.44049 -6.34217 1007 ft 134 kts 91°
2026-05-04 07:57 53.43958 -6.32661 822 ft 134 kts 91°
2026-05-04 07:57 53.43870 -6.31099 640 ft 134 kts 89°
2026-05-04 07:57 53.43792 -6.29541 431 ft 134 kts 90°
2026-05-04 07:58 53.43706 -6.27987 265 ft 134 kts 90°
2026-05-04 07:58 53.43630 -6.26499 222 ft 116 kts 97°
2026-05-04 07:58 53.43572 -6.25442 218 ft 68 kts 95°
2026-05-04 07:58 53.43542 -6.24895 218 ft 24 kts 95°
2026-05-04 07:59 53.43530 -6.24677 224 ft 3 kts 98°
2026-05-04 07:59 53.43527 -6.24636 221 ft 5 kts 99°
2026-05-04 07:59 53.43512 -6.24579 226 ft 6 kts 133°
2026-05-04 07:59 53.43465 -6.24551 222 ft 8 kts 179°
2026-05-04 08:00 53.43405 -6.24560 217 ft 9 kts 193°
2026-05-04 08:00 53.43367 -6.24651 221 ft 11 kts 254°
2026-05-04 08:00 53.43365 -6.24794 222 ft 14 kts 276°
2026-05-04 08:02 53.43046 -6.25426 219 ft 20 kts 157°
2026-05-04 08:02 53.42915 -6.25331 218 ft 21 kts 156°
2026-05-04 08:02 53.42777 -6.25231 219 ft 21 kts 156°
2026-05-04 08:03 53.42670 -6.25088 216 ft 20 kts 149°
2026-05-04 08:03 53.42544 -6.24994 216 ft 20 kts 156°
2026-05-04 08:03 53.42414 -6.24901 220 ft 17 kts 156°
2026-05-04 08:03 53.42302 -6.24819 216 ft 18 kts 156°
2026-05-04 08:04 53.42200 -6.24738 219 ft 14 kts 140°
2026-05-04 08:04 53.42172 -6.24581 216 ft 15 kts 94°
2026-05-04 08:04 53.42165 -6.24435 216 ft 10 kts 95°
2026-05-04 08:04 53.42154 -6.24320 218 ft 10 kts 96°
2026-05-04 08:05 53.42175 -6.24219 218 ft 9 kts 52°
2026-05-04 08:05 53.42212 -6.24163 216 ft 6 kts 14°
2026-05-04 08:05 53.42227 -6.24202 220 ft 5 kts 278°
2026-05-04 08:05 53.42239 -6.24267 222 ft 7 kts 309°
2026-05-04 08:06 53.42277 -6.24317 216 ft 4 kts 324°
2026-05-04 08:06 53.42295 -6.24339 220 ft 0 kts 323°